User: anonymous   Login
Location: Albuquerque Trailhead
(34.7934°N, 106.3736°W)
Time: 02:01:32
(UTC+00:00)
Language:

Cosmos 1782 - Orbit

View from above orbital plane
View from above orbital plane
View from above satellite
View from above satellite

Ground track
Ground track

The orbit data is extracted from the following two-line orbital elements,

1 16986U 86074A   21259.47805321  .00000350  00000-0  20958-4 0  9990
2 16986  82.5043  49.9279 0014252  75.6962 284.5847 15.07647941904659
Epoch (UTC): 16 September 2021 11:28:23
Eccentricity: 0.0014252
inclination: 82.5043°
perigee height: 533 km
apogee height: 553 km
right ascension of ascending node: 49.9279°
argument of perigee: 75.6962°
revolutions per day: 15.07647941
mean anomaly at epoch: 284.5847°
orbit number at epoch: 90465

The dashed part of the orbit path shows where the satellite is in the earth's shadow,  

DLR